sat.trackr.live / text

‹ back to catalog

STARLINK-37142

NORAD 68296 · 2026-057C

PAYLOAD ACTIVE UNKNOWN

§ Identity

Operator
Country
US
Launch date
2026-03-20
Launch site
AFWTR
Launch vehicle
Mass (kg)
RCS (m²)

Purposes: comms

External: N2YO · Heavens-Above · Gunter

§ Orbital elements

Epoch: 2026-05-25T04:00:03.998880Z

Period
91.42 min
Inclination
97.2837°
Eccentricity
0.0001511
Mean motion
15.75161906 rev/d
Perigee alt
343.2 km
Apogee alt
345.2 km
Semi-major
6,722.3 km
B*
8.8894e-5
RAAN
271.3887°
Arg perigee
79.1608°
Mean anomaly
237.2391°
Rev number
598

§ Raw data

STARLINK-371421 68296U 26057C   26145.16671295  .00013134  00000+0  88894-4 0  99982 68296  97.2837 271.3887 0001511  79.1608 237.2391 15.75161906  5984

JSON: /api/v1/satellites/68296 · /tle

For live sub-satellite position, see the globe view (requires WebGL).

§ Visibility from observer

Set your observer location to see the next 7 days of passes ≥ 10°. The values pass through the URL so the page stays shareable.

No JS? Fill the form by hand. The geolocation button needs JavaScript.